Volver al catálogo

HAWK-3A

ActivoMilitarPO
NORAD 48957·PAYLOAD·🇺🇸 United States

Lanzado Jun 30, 2021 desde Cape Canaveral Space Force Station

Loading…

Próximos Pases (próximas 24 horas)

TLE

ActualizadoSource: Space-Track

Época: Sep 14, 2026, 08:47 UTC

1 48957U 21059CG  26257.36605053  .00050799  00000-0  30797-3 0  9999
2 48957  97.6604 105.9749 0003736  12.5622 347.5735 15.77410253291875

Sigue HAWK-3A en tiempo real con AllMySat

Download on the App Store